Regional Weather Roundup
Issued by NWS State College, PA

Home | Current Version | Previous Version | Text Only | Print | Product List | Glossary On
Versions: 1 2 3 4 5 6 7 8 9 10 11 12 13 14 15 16 17 18 19 20 21 22 23 24 25 26 27 28 29 30 31 32 33 34 35 36 37 38 39 40 41 42 43 44 45 46 47 48 49 50
000
ASUS41 KCTP 100510
RWRCTP

REGIONAL WEATHER ROUNDUP
NATIONAL WEATHER SERVICE STATE COLLEGE PA
1200 AM EST SAT DEC 10 2016

Note: "fair" indicates few or no clouds below 12,000 feet with no
significant weather and/or obstructions to visibility.

* = STATION THAT DOES NOT REPORT PRECIPITATION /E.G. RAIN...SNOW...ETC/
    THUNDER OR FOG.

PAZ002>004-007>009-013>016-020>023-029>032-100600-
WESTERN PENNSYLVANIA

CITY           SKY/WX    TMP DP  RH WIND       PRES   REMARKS
ERIE           FLURRIES  28  23  81 SW9       30.33F
MEADVILLE      LGT SNOW  23  20  88 W12       30.32S FOG     WCI  12
FRANKLIN*        N/A     21  16  79 W12       30.33F WCI   9
NEW CASTLE     CLOUDY    26  19  74 W14G20    30.39S WCI  14
BEAVER COUNTY  NOT AVBL
BUTLER*        CLOUDY    25  16  68 SW10G20   30.40F WCI  15
PITTSBURGH INT PTCLDY    25  19  78 SW8       30.39F
PITTSBURGH     PTCLDY    23  15  71 W9        30.38F WCI  13
INDIANA*       CLOUDY    25  19  80 W14G20    30.38S WCI  13
LATROBE        CLOUDY    25  19  80 SW9       30.40F
WASHINGTON CO* PTCLDY    23  16  74 SW10      30.41S WCI  12
$$

PAZ004>006-010>012-017>019-024>028-033>037-041-042-045-046-049>053-100600-
CENTRAL PENNSYLVANIA

CITY           SKY/WX    TMP DP  RH WIND       PRES   REMARKS
BRADFORD       LGT SNOW  22  20  92 W6        30.23S FOG     WCI  14
DUBOIS         LGT SNOW  21  17  84 W10       30.28S FOG     WCI  10
CLEARFIELD     LGT SNOW  23  19  85 W9        30.31S FOG     WCI  13
JOHNSTOWN      CLOUDY    20  16  84 W16G24    30.28S WCI   6
ALTOONA        CLOUDY    24  16  71 W13       30.34R WCI  12
STATE COLLEGE  CLOUDY    25  18  75 W13G18    30.32R WCI  13
WILLIAMSPORT   CLOUDY    29  25  85 NW3       30.31R
SELINSGROVE    CLOUDY    28  20  71 W6        30.33R
FT INDIANTOWN  CLEAR     29  17  60 W10       30.33R
CAPITAL CITY   PTCLDY    28  16  60 W8        30.37R
HARRISBURG     MOCLDY    30  19  63 W14       30.36R
YORK           CLEAR     27  17  66 W7        30.37R
$$

PAZ038>040-043-044-047-048-054-055-060>062-067>071-100600-
EASTERN PENNSYLVANIA

CITY           SKY/WX    TMP DP  RH WIND       PRES   REMARKS
SCRANTON       MOCLDY    25  14  63 W6        30.26R
MOUNT POCONO   CLEAR     19  11  70 NW9       30.17F WCI   8
ALLENTOWN      CLEAR     20  16  84 SW6       30.30S WCI  12
QUAKERTOWN*    PTCLDY    27  23  86 W3        30.30S
READING        PTCLDY    30  18  60 W9        30.32R
LANCASTER      CLEAR     27  19  72 W13       30.34R
COATESVILLE    CLEAR     27  19  74 W9        30.33R
POTTSTOWN      CLOUDY    29  23  78 NW3       30.33S
BLUE BELL      PTCLDY    30  21  69 W3        30.31S
DOYLESTOWN     CLEAR     27  21  78 W5        30.29S
WILLOW GROVE   NOT AVBL
NORTH PHILA    CLEAR     27  19  72 W5        30.34R
PHILADELPHIA   PTCLDY    30  19  63 W9        30.35R
$$




USA.gov is the U.S. government's official web portal to all federal, state and local government web resources and services.